Location: Eferding
(48.3167°N, 14.0167°E)
Time: 21:24:08
(UTC+00:00)

NOSS 3-1 (C) - Pass Details

Date: 12 November 2019
Orbit: 765 x 1444 km, 63.4° (Epoch: 02 December)

Event Time Altitude Azimuth Distance (km) Brightness Sun altitude
Rises 18:35:01 0° 237° (WSW) 3,330 7.0 -30.8°
Reaches altitude 10° 18:37:22 10° 242° (WSW) 2,459 6.2 -31.2°
Maximum altitude 18:42:56 55° 320° (NW) 1,106 3.9 -32.1°
Enters shadow 18:43:19 54° 335° (NNW) 1,125 3.9 -32.2°
